Total_Precipitation_Accumulation
0.00 0.00 0.01 0.01 0.02 0.02 0.04 0.06 0.09 0.12 0.10 0.12 0.24 0.51 0.76 0.85 1.13 1.11 1.14 1.30 1.45 1.59 1.88 2.30 2.60 3.16 3.78 4.15 4.54 4.69 4.67 4.54 4.31 3.88 3.54 3.29 3.06 2.90 2.65 2.47 2.38 2.24 2.12 2.23
0.01 0.03 0.02 0.01 0.02 0.02 0.04 0.07 0.10 0.14 0.14 0.18 0.34 0.55 0.83 0.86 0.96 1.03 0.95 0.99 1.18 1.55 1.80 2.32 2.62 2.82 3.30 3.81 4.27 4.55 4.69 4.57 4.17 3.74 3.50 3.34 3.27 2.91 2.60 2.56 2.59 2.41 2.41 2.40
0.01 0.02 0.02 0.02 0.02 0.04 0.06 0.07 0.10 0.10 0.13 0.25 0.36 0.75 1.01 0.92 0.89 0.93 0.93 0.99 1.16 1.63 2.07 2.33 2.52 2.68 2.96 3.35 3.66 3.78 3.92 3.88 3.72 3.71 3.68 3.59 3.52 3.07 2.92 2.89 2.86 2.69 2.64 2.58
0.01 0.01 0.02 0.03 0.04 0.04 0.08 0.07 0.06 0.07 0.14 0.34 0.38 0.84 1.27 1.11 0.97 1.04 1.11 1.07 1.35 1.68 1.71 1.87 2.18 2.49 2.66 2.89 3.24 3.47 3.52 3.47 3.37 3.44 3.45 3.31 3.09 2.91 3.00 3.23 3.19 2.91 2.66 2.45
0.03 0.03 0.03 0.04 0.04 0.05 0.06 0.06 0.06 0.09 0.16 0.32 0.41 0.62 1.12 1.16 1.20 1.12 1.15 1.27 1.49 1.52 1.46 1.56 1.77 2.08 2.19 2.50 2.79 3.03 3.30 3.38 3.31 3.34 3.26 3.24 3.11 3.10 3.11 3.05 2.99 2.74 2.50 2.15
0.04 0.04 0.04 0.03 0.03 0.04 0.05 0.06 0.12 0.19 0.31 0.65 0.52 0.53 0.97 1.13 1.01 0.95 1.04 1.08 1.29 1.30 1.31 1.49 1.64 1.87 1.99 2.14 2.25 2.39 2.60 2.87 3.03 3.05 3.03 3.04 2.96 2.94 2.85 2.71 2.53 2.31 2.10 1.83
0.09 0.10 0.08 0.05 0.05 0.06 0.06 0.10 0.39 0.74 0.98 1.03 0.56 0.60 1.05 0.92 0.73 0.75 0.92 0.96 1.03 1.02 1.01 1.23 1.35 1.46 1.59 1.72 1.81 1.93 2.13 2.46 2.59 2.56 2.54 2.66 2.71 2.71 2.62 2.55 2.35 2.11 1.83 1.53
0.16 0.21 0.12 0.07 0.07 0.07 0.08 0.09 0.34 0.62 0.75 0.82 0.67 1.02 1.46 0.97 0.75 0.80 0.83 0.81 0.79 0.79 0.77 0.92 1.13 1.33 1.39 1.42 1.54 1.67 1.90 2.12 2.19 2.11 2.24 2.44 2.50 2.57 2.45 2.47 2.23 1.95 1.72 1.60
0.11 0.11 0.07 0.07 0.10 0.10 0.09 0.08 0.14 0.28 0.37 0.60 0.83 1.13 1.18 0.73 0.64 0.73 0.75 0.75 0.78 0.78 0.74 0.80 0.87 1.03 1.08 1.13 1.22 1.33 1.69 1.93 2.01 2.01 2.16 2.28 2.35 2.32 2.22 2.13 1.96 1.76 1.75 1.71
0.04 0.06 0.08 0.07 0.08 0.10 0.10 0.11 0.16 0.22 0.36 0.58 0.80 1.10 1.25 0.88 0.71 0.53 0.49 0.53 0.49 0.50 0.53 0.59 0.59 0.69 0.81 0.99 1.17 1.28 1.42 1.64 1.85 1.90 1.94 1.98 2.13 2.06 1.96 1.92 1.78 1.62 1.54 1.59
0.04 0.04 0.07 0.08 0.11 0.13 0.13 0.11 0.13 0.17 0.21 0.40 0.80 1.02 0.83 0.69 0.58 0.54 0.50 0.54 0.47 0.40 0.41 0.46 0.55 0.67 0.80 0.90 1.05 1.23 1.30 1.44 1.59 1.68 1.79 1.80 1.79 1.85 1.88 1.76 1.61 1.56 1.54 1.57
0.04 0.04 0.06 0.13 0.18 0.16 0.14 0.11 0.13 0.17 0.17 0.25 0.45 0.66 0.53 0.59 0.60 0.52 0.54 0.60 0.60 0.55 0.49 0.52 0.67 0.77 0.80 0.90 0.99 1.07 1.13 1.26 1.42 1.58 1.77 1.86 1.87 1.90 1.85 1.68 1.54 1.54 1.56 1.62
0.05 0.06 0.11 0.28 0.40 0.26 0.16 0.12 0.12 0.14 0.11 0.20 0.40 0.64 0.45 0.40 0.49 0.64 0.88 1.06 0.85 0.67 0.61 0.70 0.77 0.73 0.74 0.82 0.93 0.91 0.95 1.13 1.32 1.54 1.87 2.03 2.04 1.97 1.89 1.71 1.53 1.49 1.52 1.61
0.08 0.06 0.10 0.30 0.43 0.36 0.26 0.17 0.13 0.11 0.13 0.17 0.25 0.52 0.48 0.45 0.50 0.66 0.84 0.79 0.78 0.72 0.65 0.75 0.75 0.81 0.79 0.75 0.84 0.85 0.91 1.02 1.24 1.44 1.63 1.74 1.66 1.63 1.64 1.57 1.47 1.41 1.41 1.49
0.12 0.08 0.07 0.12 0.21 0.24 0.24 0.22 0.18 0.15 0.12 0.21 0.25 0.37 0.45 0.48 0.59 0.76 0.89 0.89 0.86 0.71 0.60 0.62 0.61 0.68 0.73 0.73 0.81 0.77 0.77 0.82 0.97 1.16 1.28 1.41 1.42 1.40 1.38 1.42 1.45 1.42 1.50 1.53
0.18 0.18 0.14 0.16 0.19 0.24 0.27 0.25 0.18 0.13 0.11 0.16 0.24 0.38 0.50 0.57 0.66 0.71 0.65 0.60 0.57 0.52 0.41 0.40 0.51 0.58 0.60 0.59 0.62 0.58 0.64 0.77 0.92 1.03 1.14 1.35 1.47 1.49 1.47 1.49 1.55 1.54 1.54 1.57
0.24 0.27 0.26 0.25 0.24 0.25 0.34 0.33 0.24 0.15 0.14 0.20 0.32 0.49 0.64 0.55 0.54 0.60 0.57 0.55 0.54 0.50 0.35 0.30 0.37 0.46 0.51 0.53 0.53 0.62 0.75 0.88 1.00 1.14 1.28 1.46 1.55 1.63 1.64 1.57 1.64 1.57 1.60 1.68
0.39 0.41 0.33 0.31 0.42 0.51 0.37 0.30 0.29 0.28 0.26 0.28 0.40 0.42 0.56 0.56 0.61 0.71 0.68 0.64 0.52 0.47 0.37 0.33 0.35 0.38 0.45 0.51 0.59 0.72 0.98 1.19 1.22 1.37 1.56 1.66 1.75 1.71 1.67 1.66 1.68 1.74 1.83 1.85
0.33 0.49 0.47 0.47 0.60 0.52 0.44 0.32 0.36 0.40 0.54 0.55 0.63 0.61 0.55 0.55 0.65 0.73 0.61 0.52 0.53 0.45 0.41 0.41 0.40 0.46 0.54 0.58 0.62 0.82 1.04 1.27 1.39 1.46 1.60 1.76 1.86 1.86 1.87 1.89 1.84 1.87 1.95 1.92
0.34 0.50 0.62 0.59 0.74 0.73 0.61 0.48 0.47 0.58 1.02 0.85 0.79 0.80 0.67 0.62 0.75 0.80 0.72 0.65 0.57 0.52 0.50 0.50 0.50 0.59 0.71 0.79 0.83 0.96 1.09 1.23 1.41 1.49 1.61 1.77 1.97 2.01 2.05 2.18 2.22 2.13 2.08 1.98
0.63 0.71 0.74 0.74 0.80 0.86 0.74 0.68 0.71 1.10 1.38 1.05 0.88 0.85 0.80 0.90 0.91 0.85 0.76 0.75 0.68 0.58 0.57 0.55 0.58 0.66 0.82 0.94 1.04 1.16 1.30 1.42 1.44 1.50 1.62 1.82 1.98 2.07 2.13 2.27 2.36 2.34 2.31 2.29
0.82 0.88 0.87 0.88 1.07 1.23 0.86 0.83 1.23 1.48 1.24 1.23 1.18 1.10 0.98 0.96 0.90 0.83 0.75 0.73 0.67 0.65 0.69 0.69 0.71 0.86 1.01 1.15 1.19 1.27 1.34 1.38 1.40 1.42 1.53 1.66 1.82 1.87 1.95 2.18 2.28 2.36 2.38 2.34
0.88 0.97 1.05 1.17 1.29 1.18 1.00 1.08 1.24 1.37 1.53 1.44 1.32 1.29 1.12 1.08 0.98 0.86 0.77 0.73 0.69 0.67 0.72 0.75 0.80 1.00 1.19 1.35 1.41 1.46 1.36 1.41 1.43 1.48 1.60 1.73 1.81 1.88 1.99 2.08 2.10 2.16 2.22 2.20
1.01 0.90 1.10 1.33 1.37 1.29 1.16 1.03 0.97 1.10 1.21 1.19 1.18 1.17 1.12 1.09 1.03 0.93 0.79 0.69 0.67 0.67 0.63 0.67 0.76 0.86 0.97 1.17 1.33 1.42 1.44 1.49 1.51 1.55 1.60 1.67 1.78 1.81 1.84 1.95 2.04 2.14 2.23 2.32
1.18 1.06 1.27 1.55 1.47 1.35 1.36 1.25 1.12 1.18 1.24 1.16 1.11 1.07 1.08 1.06 1.00 0.85 0.78 0.71 0.67 0.65 0.64 0.68 0.77 0.79 0.85 0.92 1.02 1.10 1.18 1.30 1.36 1.42 1.47 1.52 1.55 1.64 1.71 1.76 1.84 1.87 1.95 1.95
1.25 1.23 1.50 1.82 1.61 1.46 1.44 1.34 1.21 1.24 1.20 1.25 1.31 1.30 1.08 0.97 1.02 0.92 0.80 0.72 0.71 0.71 0.70 0.73 0.76 0.76 0.79 0.82 0.96 1.06 1.14 1.27 1.40 1.49 1.52 1.45 1.42 1.47 1.52 1.55 1.54 1.52 1.45 1.44